| time (UTC) | temp F | wind direction | speed knots | gust knots | rain 1hr in | rain 24hr in | rain mn in | humidity % | barometer mb |
| 20260506134546 | 44 | 329 | 4.3 | 12.2 | 0.00 | 0.01 | 0.01 | 56 | 1011.1 |
| 20260506133048 | 44 | 344 | 7.0 | 16.5 | 0.00 | 0.01 | 0.01 | 55 | 1011.1 |
| 20260506131552 | 44 | 53 | 2.6 | 12.2 | 0.00 | 0.01 | 0.01 | 56 | 1010.6 |
| 20260506130045 | 42 | 49 | 4.3 | 13.0 | 0.00 | 0.01 | 0.01 | 58 | 1010.5 |
| 20260506124542 | 42 | 5 | 2.6 | 11.3 | 0.00 | 0.01 | 0.01 | 62 | 1010.4 |
| 20260506123040 | 42 | 0 | 5.2 | 10.4 | 0.00 | 0.01 | 0.01 | 63 | 1010.6 |
| 20260506121538 | 42 | 351 | 5.2 | 14.8 | 0.00 | 0.01 | 0.01 | 67 | 1010.2 |
| 20260506120047 | 41 | 19 | 4.3 | 10.4 | 0.00 | 0.01 | 0.01 | 67 | 1010.1 |
| 20260506114540 | 41 | 345 | 3.5 | 9.6 | 0.00 | 0.01 | 0.01 | 68 | 1009.9 |
| 20260506113043 | 41 | 5 | 3.5 | 8.7 | 0.00 | 0.01 | 0.01 | 68 | 1009.7 |
| 20260506111537 | 42 | 0 | 1.7 | 10.4 | 0.00 | 0.01 | 0.01 | 67 | 1009.4 |
| 20260506110037 | 42 | 348 | 3.5 | 11.3 | 0.00 | 0.01 | 0.01 | 67 | 1008.9 |
| 20260506104537 | 42 | 0 | 3.5 | 10.4 | 0.00 | 0.01 | 0.01 | 67 | 1008.8 |
| 20260506103051 | 42 | 360 | 2.6 | 10.4 | 0.00 | 0.01 | 0.01 | 66 | 1008.4 |
| 20260506101540 | 43 | 0 | 0.0 | 3.5 | 0.00 | 0.01 | 0.01 | 67 | 1008.3 |
| 20260506100039 | 43 | 11 | 0.0 | 4.3 | 0.00 | 0.01 | 0.01 | 66 | 1008.2 |
| 20260506094540 | 43 | 0 | 1.7 | 8.7 | 0.00 | 0.01 | 0.01 | 65 | 1008.4 |
| 20260506093047 | 44 | 46 | 2.6 | 9.6 | 0.00 | 0.01 | 0.01 | 66 | 1008.1 |
| 20260506091552 | 44 | 0 | 0.0 | 9.6 | 0.00 | 0.01 | 0.01 | 68 | 1008.2 |
| 20260506090049 | 44 | 0 | 0.9 | 7.0 | 0.01 | 0.01 | 0.01 | 67 | 1008.1 |
| 20260506084546 | 44 | 335 | 0.9 | 5.2 | 0.01 | 0.01 | 0.01 | 67 | 1008.0 |
| 20260506083040 | 45 | 5 | 2.6 | 8.7 | 0.01 | 0.01 | 0.01 | 65 | 1008.1 |
| 20260506081538 | 46 | 338 | 4.3 | 9.6 | 0.01 | 0.01 | 0.01 | 65 | 1008.3 |
| 20260506073046 | 47 | 0 | 0.0 | 1.7 | 0.00 | 0.00 | 0.00 | 62 | 1007.8 |
| 20260506071540 | 48 | 0 | 0.0 | 1.7 | 0.00 | 0.00 | 0.00 | 61 | 1007.6 |
| 20260506061538 | 48 | 0 | 0.0 | 0.0 | 0.00 | 0.00 | 0.00 | 58 | 1007.4 |
| 20260506044539 | 49 | 0 | 0.0 | 0.0 | 0.00 | 0.00 | 0.00 | 60 | 1007.3 |
| 20260506043046 | 49 | 0 | 0.0 | 0.0 | 0.00 | 0.00 | 0.00 | 56 | 1007.4 |
| 20260506041542 | 50 | 0 | 0.0 | 0.0 | 0.00 | 0.00 | 0.00 | 57 | 1007.6 |
| 20260506040041 | 50 | 0 | 0.0 | 0.0 | 0.00 | 0.00 | 0.00 | 56 | 1007.6 |
| 20260506034552 | 50 | 0 | 0.0 | 0.0 | 0.00 | 0.00 | 0.00 | 54 | 1007.6 |
| 20260506033038 | 51 | 0 | 0.0 | 0.0 | 0.00 | 0.00 | 0.00 | 55 | 1007.6 |
| 20260506031545 | 51 | 0 | 0.0 | 0.0 | 0.00 | 0.00 | 0.00 | 56 | 1007.5 |
| 20260506030044 | 51 | 0 | 0.0 | 5.2 | 0.00 | 0.00 | 0.00 | 62 | 1007.6 |
| 20260506024557 | 51 | 0 | 0.0 | 0.0 | 0.00 | 0.00 | 0.00 | 71 | 1007.7 |
| 20260506023038 | 51 | 0 | 0.0 | 0.0 | 0.00 | 0.00 | 0.00 | 72 | 1007.7 |
| 20260506021537 | 51 | 0 | 0.0 | 0.0 | 0.00 | 0.00 | 0.00 | 77 | 1007.4 |
| 20260506020045 | 51 | 0 | 0.0 | 0.0 | 0.00 | 0.00 | 0.00 | 78 | 1007.3 |
| 20260506014549 | 51 | 0 | 0.0 | 0.0 | 0.00 | 0.00 | 0.00 | 76 | 1007.3 |
| 20260506013100 | 51 | 0 | 0.0 | 0.0 | 0.00 | 0.00 | 0.00 | 76 | 1007.3 |
| 20260506011542 | 51 | 0 | 0.0 | 0.0 | 0.00 | 0.00 | 0.00 | 75 | 1007.2 |
| 20260506010040 | 51 | 0 | 0.0 | 0.0 | 0.00 | 0.00 | 0.00 | 75 | 1007.1 |
| 20260506004543 | 52 | 0 | 0.0 | 0.0 | 0.00 | 0.00 | 0.00 | 75 | 1007.1 |
| 20260506003039 | 52 | 0 | 0.0 | 0.0 | 0.00 | 0.00 | 0.00 | 73 | 1006.8 |
| 20260506001546 | 53 | 0 | 0.0 | 0.0 | 0.00 | 0.00 | 0.00 | 72 | 1006.6 |
| 20260506000044 | 53 | 0 | 0.0 | 0.0 | 0.00 | 0.00 | 0.00 | 71 | 1006.5 |
| 20260505234541 | 54 | 0 | 0.0 | 0.0 | 0.00 | 0.00 | 0.00 | 70 | 1006.2 |
| 20260505233038 | 54 | 0 | 0.0 | 0.0 | 0.00 | 0.00 | 0.00 | 69 | 1006.2 |
| 20260505231541 | 54 | 0 | 0.0 | 0.0 | 0.00 | 0.00 | 0.00 | 68 | 1006.4 |
| 20260505230056 | 54 | 0 | 0.0 | 0.0 | 0.00 | 0.00 | 0.00 | 67 | 1006.3 |
| 20260505224548 | 54 | 0 | 0.0 | 4.3 | 0.00 | 0.00 | 0.00 | 67 | 1006.5 |
| 20260505223055 | 54 | 167 | 0.0 | 4.3 | 0.00 | 0.00 | 0.00 | 68 | 1006.6 |
| 20260505221548 | 54 | 164 | 1.7 | 5.2 | 0.00 | 0.00 | 0.00 | 68 | 1006.8 |
| 20260505220049 | 55 | 0 | 0.0 | 3.5 | 0.00 | 0.00 | 0.00 | 69 | 1006.6 |
| 20260505214545 | 54 | 0 | 0.0 | 0.0 | 0.00 | 0.00 | 0.00 | 69 | 1006.5 |
| 20260505213054 | 54 | 142 | 0.0 | 3.5 | 0.00 | 0.00 | 0.00 | 71 | 1006.7 |
| 20260505211546 | 54 | 0 | 0.9 | 3.5 | 0.00 | 0.00 | 0.00 | 71 | 1006.6 |
| 20260505210047 | 53 | 0 | 0.0 | 2.6 | 0.00 | 0.00 | 0.00 | 75 | 1006.7 |
| 20260505204540 | 52 | 0 | 0.0 | 2.6 | 0.00 | 0.00 | 0.00 | 79 | 1006.7 |
| 20260505203045 | 52 | 0 | 0.0 | 3.5 | 0.00 | 0.00 | 0.00 | 79 | 1006.7 |
| 20260505201545 | 51 | 0 | 0.0 | 3.5 | 0.00 | 0.00 | 0.00 | 80 | 1006.8 |
| 20260505200044 | 50 | 142 | 0.0 | 4.3 | 0.00 | 0.00 | 0.00 | 80 | 1006.8 |
| 20260505194540 | 50 | 138 | 1.7 | 7.0 | 0.00 | 0.00 | 0.00 | 80 | 1007.1 |
| 20260505193038 | 49 | 0 | 0.0 | 5.2 | 0.00 | 0.00 | 0.00 | 80 | 1007.2 |
| 20260505191546 | 49 | 123 | 0.9 | 7.0 | 0.00 | 0.00 | 0.00 | 79 | 1007.1 |
| 20260505190044 | 49 | 0 | 0.9 | 6.1 | 0.00 | 0.00 | 0.00 | 80 | 1006.8 |
| 20260505184538 | 49 | 0 | 0.0 | 3.5 | 0.00 | 0.00 | 0.00 | 80 | 1006.7 |
| 20260505183053 | 49 | 120 | 0.9 | 6.1 | 0.00 | 0.00 | 0.00 | 79 | 1006.7 |
| 20260505181539 | 49 | 0 | 0.0 | 6.1 | 0.00 | 0.00 | 0.00 | 78 | 1006.7 |
| 20260505180040 | 49 | 103 | 0.9 | 5.2 | 0.00 | 0.00 | 0.00 | 78 | 1006.5 |
| 20260505174541 | 49 | 103 | 1.7 | 5.2 | 0.00 | 0.00 | 0.00 | 78 | 1006.2 |
| 20260505173044 | 48 | 0 | 0.0 | 1.7 | 0.00 | 0.00 | 0.00 | 73 | 1006.6 |
| 20260505171545 | 49 | 49 | 0.9 | 4.3 | 0.00 | 0.00 | 0.00 | 69 | 1006.6 |
| 20260505170043 | 50 | 0 | 0.0 | 3.5 | 0.00 | 0.00 | 0.00 | 62 | 1006.7 |
| 20260505164550 | 51 | 0 | 0.0 | 4.3 | 0.00 | 0.00 | 0.00 | 55 | 1006.7 |
| 20260505163041 | 51 | 56 | 0.9 | 6.1 | 0.00 | 0.00 | 0.00 | 52 | 1006.2 |
| 20260505161546 | 52 | 99 | 1.7 | 7.0 | 0.00 | 0.00 | 0.00 | 51 | 1006.4 |
| 20260505153107 | 52 | 60 | 2.6 | 7.8 | 0.00 | 0.00 | 0.00 | 50 | 1005.5 |
| 20260505151548 | 52 | 69 | 3.5 | 8.7 | 0.00 | 0.00 | 0.00 | 49 | 1005.6 |